Weather Roundup
Issued by NWS Chicago, IL

Home | Current Version | Previous Version | Graphics & Text | Print | Product List | Glossary On
Versions: 1 2 3 4 5 6 7 8 9 10 11 12 13 14 15 16 17 18 19 20 21 22 23 24 25 26 27 28 29 30 31 32 33 34 35 36 37 38 39 40 41 42 43 44 45 46 47 48 49 50
000
NZUS59 KLOT 200706
HRRLOT

CHICAGO AREA WEATHER ROUNDUP
NATIONAL WEATHER SERVICE CHICAGO/ROMEOVILLE IL
200 AM CDT MON OCT 20 2014

NOTE: "FAIR" INDICATES FEW OR NO CLOUDS BELOW 12,000 FEET WITH NO
SIGNIFICANT WEATHER AND/OR OBSTRUCTIONS TO VISIBILITY.

* THESE STATIONS ARE NOT UNDER NWS QUALITY CONTROL. THEY ALSO MAY NOT
  REPORT WEATHER SUCH AS PRECIPITATION OR FOG.

ILZ005-006-012>014-019>023-200800-
NORTHEAST ILLINOIS

CITY           SKY/WX    TMP DP  RH WIND       PRES   REMARKS
OHARE            N/A     51  43  74 SW9       29.86F
MIDWAY           N/A     51  44  77 S10       29.88F
AURORA           N/A     49  43  80 SW10      29.87F
LANSING*       MOCLDY    49  44  83 S10       29.91F
JOLIET*          N/A     48  44  84 S7        29.89F
WAUKEGAN         N/A     50  42  74 SW13      29.83F
DUPAGE AIRPORT   N/A     49  43  80 S7        29.86F
WHEELING         N/A     53  43  68 SW9       29.87F
KANKAKEE*      CLOUDY    48  44  86 S9        29.92F
MORRIS*          N/A     50  46  86 SW7       29.88F
LEWIS AIRPORT*   N/A     49  43  80 S8        29.89F
NORTHERLY IS     N/A     52  43  71 S5          N/A
$$

WIZ051-052-058>065-066-070>072-200800-
SOUTHEAST WISCONSIN

CITY           SKY/WX    TMP DP  RH WIND       PRES   REMARKS
MILWAUKEE        N/A     51  42  71 SW9       29.79F
KENOSHA*         N/A     51  43  74 SW12      29.82F
RACINE*          N/A     52  42  69 SW12G21   29.82F
BURLINGTON       N/A     47  42  81 SW7       29.81F
WAUKESHA         N/A     46  41  81 SW5       29.81F
WEST BEND        N/A     50  41  71 SW8       29.78F
$$

INZ001>003-010>013-019-020-200800-
NORTHWEST INDIANA

CITY           SKY/WX    TMP DP  RH WIND       PRES   REMARKS
GARY*          CLOUDY    51  44  76 S7        29.90F
MICHIGAN CITY* NOT AVBL
RENSSELAER*    NOT AVBL
VALPARAISO     MOCLDY    48  42  80 S10       29.92F
$$

LMZ740>746-200800-
SOUTHERN LAKE MICHIGAN

STATION/POSITION TIME  SKY/WX   TEMP WIND        PRES    VSBY
                                AIR  DIR/SP/G
                 (UTC)          (F)  (DEG/KT/KT) (MB)    (MI)
HARRISON CRIB    0700            53  210/ 26/ 30   N/A
BURNHAM HARBOR   0700            51  220/  9/ 12   N/A
CALUMET HARBOR   0700            52  200/ 11/ 15 1010.9F
BURNS HARBOR     NOT AVBL
MICHIGAN CITY    0700            50  160/ 16/ 19   N/A
$$

ABBREVIATIONS USED IN REMARKS
   TC - TEMPERATURE IN CELSIUS
  WCI - WIND CHILL INDEX
   HX - HEAT INDEX
  VSB - VISIBILITY
$$



USA.gov is the U.S. government's official web portal to all federal, state and local government web resources and services.